When you browse on this site, cookies collect data to enhance your experience and personalize the content and advertising you see.
Visit our Privacy Policy to learn more. By continuing to use the site, you agree to this use of cookies and data.
  • In Portugal
  • List of Countries
  • For 7 days
  • Water Temperature
  • Satellite Maps
  • Weather Map
  • Weather Widgets
  • user-avatar
    Login

    Hourly Weather Pervomayskiy

    Today, 19 June, Wednesday

    Time Temperature Precipitation Wind Pressure Humidity
    00:00 +15°C° 0 mm 1 mps 749 mmHg 83%
    01:00 +15°C° 0 mm 1 mps 749 mmHg 83%
    02:00 +15°C° 0 mm 1 mps 749 mmHg 82%
    03:00 +15°C° 0 mm 1 mps 749 mmHg 83%
    04:00 +15°C° 0 mm 1 mps 749 mmHg 84%
    05:00 +15°C° 0 mm 1 mps 749 mmHg 84%
    06:00 +18°C° 0 mm 1 mps 749 mmHg 80%
    07:00 +20°C° 0 mm 1 mps 749 mmHg 75%
    08:00 +22°C° 0 mm 1 mps 749 mmHg 71%
    09:00 +23°C° 0 mm 1 mps 749 mmHg 66%
    10:00 +24°C° 0 mm 1 mps 749 mmHg 61%
    11:00 +25°C° 0 mm 1 mps 749 mmHg 56%
    12:00 +25°C° 0 mm 2 mps 749 mmHg 55%
    13:00 +26°C° 0 mm 2 mps 749 mmHg 54%
    14:00 +26°C° 0 mm 2 mps 749 mmHg 53%
    15:00 +26°C° 0 mm 3 mps 748 mmHg 56%
    16:00 +26°C° 0 mm 3 mps 748 mmHg 59%
    17:00 +25°C° 0 mm 3 mps 747 mmHg 63%
    18:00 +24°C° 0 mm 2 mps 747 mmHg 68%
    19:00 +21°C° 0 mm 2 mps 747 mmHg 74%
    20:00 +20°C° 0 mm 2 mps 747 mmHg 79%
    21:00 +19°C° 0 mm 2 mps 747 mmHg 81%
    22:00 +18°C° 0 mm 2 mps 747 mmHg 82%
    23:00 +17°C° 0 mm 2 mps 747 mmHg 84%

    Tomorrow, 20 June, Thursday

    Time Temperature Precipitation Wind Pressure Humidity
    00:00 +17°C° 0 mm 3 mps 747 mmHg 84%
    01:00 +16°C° 0 mm 3 mps 747 mmHg 84%
    02:00 +16°C° 0 mm 3 mps 747 mmHg 84%
    03:00 +16°C° 0 mm 3 mps 746 mmHg 84%
    04:00 +16°C° 0 mm 3 mps 746 mmHg 84%
    05:00 +15°C° 0 mm 4 mps 746 mmHg 84%
    06:00 +18°C° 0 mm 4 mps 746 mmHg 82%
    07:00 +20°C° 0 mm 4 mps 746 mmHg 81%
    08:00 +21°C° 0 mm 5 mps 746 mmHg 79%
    09:00 +22°C° 0.5 mm 5 mps 746 mmHg 78%
    10:00 +23°C° 0.5 mm 5 mps 746 mmHg 78%
    11:00 +25°C° 0.5 mm 5 mps 746 mmHg 77%
    12:00 +25°C° 0.1 mm 5 mps 745 mmHg 75%
    13:00 +26°C° 0.1 mm 5 mps 745 mmHg 73%
    14:00 +26°C° 0.1 mm 5 mps 745 mmHg 71%
    15:00 +25°C° 1.5 mm 4 mps 745 mmHg 77%
    16:00 +24°C° 1.5 mm 3 mps 744 mmHg 84%
    17:00 +21°C° 1.5 mm 2 mps 744 mmHg 90%
    18:00 +21°C° 0.2 mm 2 mps 744 mmHg 90%
    19:00 +21°C° 0.2 mm 3 mps 744 mmHg 90%
    20:00 +21°C° 0.2 mm 3 mps 744 mmHg 90%
    21:00 +21°C° 0 mm 3 mps 744 mmHg 90%
    22:00 +20°C° 0 mm 3 mps 744 mmHg 91%
    23:00 +20°C° 0 mm 3 mps 744 mmHg 92%

    Day after tomorrow, 21 June, Friday

    Time Temperature Precipitation Wind Pressure Humidity
    00:00 +20°C° 0.1 mm 3 mps 744 mmHg 93%
    01:00 +19°C° 0.1 mm 3 mps 744 mmHg 94%
    02:00 +19°C° 0.1 mm 3 mps 744 mmHg 95%
    03:00 +19°C° 0.3 mm 3 mps 744 mmHg 96%
    04:00 +20°C° 0.3 mm 3 mps 744 mmHg 96%
    05:00 +20°C° 0.3 mm 3 mps 744 mmHg 97%
    06:00 +21°C° 0.1 mm 3 mps 744 mmHg 94%
    07:00 +22°C° 0.1 mm 3 mps 744 mmHg 92%
    08:00 +24°C° 0.1 mm 3 mps 745 mmHg 90%
    09:00 +25°C° 1.6 mm 3 mps 745 mmHg 86%
    10:00 +26°C° 1.6 mm 3 mps 745 mmHg 82%
    11:00 +27°C° 1.6 mm 3 mps 745 mmHg 78%
    12:00 +27°C° 1.6 mm 3 mps 745 mmHg 79%
    13:00 +26°C° 1.6 mm 2 mps 745 mmHg 80%
    14:00 +26°C° 1.6 mm 2 mps 745 mmHg 82%
    15:00 +27°C° 0.3 mm 1 mps 745 mmHg 79%
    16:00 +27°C° 0.3 mm 1 mps 744 mmHg 77%
    17:00 +27°C° 0.3 mm 1 mps 744 mmHg 75%
    18:00 +26°C° 0.4 mm 1 mps 744 mmHg 80%
    19:00 +25°C° 0.4 mm 1 mps 744 mmHg 85%
    20:00 +24°C° 0.4 mm 2 mps 744 mmHg 90%
    21:00 +23°C° 0.4 mm 2 mps 744 mmHg 91%
    22:00 +22°C° 0.4 mm 1 mps 744 mmHg 92%
    23:00 +21°C° 0.4 mm 1 mps 745 mmHg 94%

    22 June, Saturday

    Time Temperature Precipitation Wind Pressure Humidity
    00:00 +21°C° 0.1 mm 1 mps 745 mmHg 94%
    01:00 +20°C° 0.1 mm 1 mps 745 mmHg 94%
    02:00 +20°C° 0.1 mm 1 mps 745 mmHg 94%
    03:00 +20°C° 0.2 mm 1 mps 745 mmHg 94%
    04:00 +20°C° 0.2 mm 1 mps 745 mmHg 95%
    05:00 +20°C° 0.2 mm 1 mps 745 mmHg 95%
    06:00 +20°C° 0.2 mm 1 mps 745 mmHg 94%
    07:00 +21°C° 0.2 mm 1 mps 745 mmHg 94%
    08:00 +20°C° 0.2 mm 2 mps 745 mmHg 93%
    09:00 +23°C° 0.3 mm 2 mps 746 mmHg 87%
    10:00 +24°C° 0.3 mm 2 mps 746 mmHg 81%
    11:00 +26°C° 0.3 mm 3 mps 746 mmHg 76%
    12:00 +26°C° 0 mm 3 mps 746 mmHg 73%
    13:00 +27°C° 0 mm 3 mps 746 mmHg 70%
    14:00 +27°C° 0 mm 3 mps 746 mmHg 67%
    15:00 +27°C° 0.1 mm 3 mps 746 mmHg 70%
    16:00 +26°C° 0.1 mm 3 mps 746 mmHg 73%
    17:00 +26°C° 0.1 mm 3 mps 746 mmHg 77%
    18:00 +25°C° 0 mm 3 mps 746 mmHg 80%
    19:00 +24°C° 0 mm 3 mps 746 mmHg 83%
    20:00 +21°C° 0 mm 3 mps 747 mmHg 87%
    21:00 +21°C° 0.2 mm 3 mps 747 mmHg 89%
    22:00 +20°C° 0.2 mm 3 mps 747 mmHg 91%
    23:00 +19°C° 0.2 mm 3 mps 747 mmHg 93%

    23 June, Sunday

    Time Temperature Precipitation Wind Pressure Humidity
    00:00 +19°C° 0.6 mm 4 mps 747 mmHg 93%
    01:00 +19°C° 0.6 mm 4 mps 747 mmHg 94%
    02:00 +19°C° 0.6 mm 4 mps 747 mmHg 94%
    03:00 +18°C° 0.7 mm 4 mps 747 mmHg 94%
    04:00 +18°C° 0.7 mm 4 mps 746 mmHg 95%
    05:00 +17°C° 0.7 mm 5 mps 746 mmHg 95%
    06:00 +17°C° 1.1 mm 5 mps 746 mmHg 95%
    07:00 +18°C° 1.1 mm 4 mps 746 mmHg 96%
    08:00 +18°C° 1.1 mm 4 mps 746 mmHg 96%
    09:00 +19°C° 0.7 mm 4 mps 746 mmHg 95%
    10:00 +20°C° 0.7 mm 4 mps 746 mmHg 95%
    11:00 +21°C° 0.7 mm 5 mps 745 mmHg 94%
    12:00 +22°C° 1.3 mm 4 mps 745 mmHg 93%
    13:00 +22°C° 1.3 mm 4 mps 745 mmHg 91%
    14:00 +22°C° 1.3 mm 3 mps 745 mmHg 90%
    15:00 +22°C° 0.9 mm 3 mps 744 mmHg 90%
    16:00 +22°C° 0.9 mm 3 mps 744 mmHg 90%
    17:00 +23°C° 0.9 mm 2 mps 744 mmHg 90%
    18:00 +23°C° 0.3 mm 2 mps 744 mmHg 91%
    19:00 +21°C° 0.3 mm 2 mps 743 mmHg 92%
    20:00 +21°C° 0.3 mm 2 mps 743 mmHg 93%
    21:00 +20°C° 0.5 mm 2 mps 743 mmHg 94%
    22:00 +20°C° 0.5 mm 2 mps 744 mmHg 95%
    23:00 +20°C° 0.5 mm 3 mps 744 mmHg 97%

    24 June, Monday

    Time Temperature Precipitation Wind Pressure Humidity
    00:00 +19°C° 0.7 mm 2 mps 744 mmHg 97%
    01:00 +19°C° 0.7 mm 2 mps 744 mmHg 97%
    02:00 +18°C° 0.7 mm 2 mps 744 mmHg 98%
    03:00 +19°C° 1 mm 2 mps 744 mmHg 98%
    04:00 +19°C° 1 mm 2 mps 744 mmHg 98%
    05:00 +19°C° 1 mm 2 mps 744 mmHg 98%
    06:00 +19°C° 0.1 mm 3 mps 745 mmHg 97%
    07:00 +19°C° 0.1 mm 3 mps 745 mmHg 96%
    08:00 +19°C° 0.1 mm 4 mps 745 mmHg 95%
    09:00 +19°C° 0.2 mm 4 mps 746 mmHg 95%
    10:00 +19°C° 0.2 mm 4 mps 746 mmHg 95%
    11:00 +17°C° 0.2 mm 5 mps 746 mmHg 95%
    12:00 +17°C° 0 mm 5 mps 746 mmHg 94%
    13:00 +17°C° 0 mm 5 mps 747 mmHg 93%
    14:00 +17°C° 0 mm 5 mps 747 mmHg 92%
    15:00 +17°C° 0 mm 5 mps 747 mmHg 91%
    16:00 +17°C° 0 mm 5 mps 747 mmHg 90%
    17:00 +17°C° 0 mm 6 mps 748 mmHg 89%
    18:00 +17°C° 0 mm 5 mps 748 mmHg 88%
    19:00 +17°C° 0 mm 5 mps 748 mmHg 87%
    20:00 +17°C° 0 mm 5 mps 749 mmHg 86%
    21:00 +16°C° 0 mm 5 mps 749 mmHg 87%
    22:00 +15°C° 0 mm 4 mps 750 mmHg 89%
    23:00 +14°C° 0 mm 4 mps 750 mmHg 90%
    Show more